Location: Bastrop State Park
(30.1090°N, 97.2819°W)
Time: 11:36:51
(UTC-05:00)

Daily predictions for brighter satellites

Satellite Brightness Start Highest point End
(mag) Time Altitude Azimuth Time Altitude Azimuth Time Altitude Azimuth
OAO 2 Rocket 3.5 20:17:55 10° WNW 20:23:12 80° NNE 20:28:23 10° ESE
Cosmos 2278 Rocket 3.7 20:20:29 10° NNE 20:24:21 18° ENE 20:28:10 10° ESE
FengYun 1-2 T 4.3 20:20:55 10° SSE 20:26:29 76° ENE 20:32:09 10° N
OAO 3 Copernicus 4.4 20:26:02 10° WSW 20:31:04 81° NNW 20:36:07 10° ENE
ASTRO E2 2.7 20:28:23 10° WSW 20:32:24 79° SSE 20:36:25 10° E
Hubble Space Telescope 2.6 20:34:25 10° S 20:36:46 15° SSE 20:39:01 10° ESE
Envisat 3.3 20:32:32 10° SE 20:37:21 46° ENE 20:42:11 10° N
H-2A R/B 3.9 20:34:36 10° S 20:38:09 44° W 20:41:46 10° NNW
Cosmos 1825 4.2 20:37:31 10° ENE 20:38:41 11° ENE 20:39:48 10° E
Cosmos 1328 Rocket 3.7 20:36:26 10° S 20:40:43 54° E 20:45:03 10° NNE
In-Cosmos 22 Rocket 4.3 20:36:06 10° N 20:41:29 78° W 20:46:45 10° S
CZ-4C R/B4.020:44:58E20:44:58E20:37:44SSE
Nadezhda 3 Rocket 4.1 20:36:40 10° N 20:42:57 62° E 20:49:13 10° SSE
OAO 3 Rocket 4.3 20:39:39 10° SSW 20:43:27 24° SSE 20:46:40 12° E
Fermi 4.4 20:40:03 10° WSW 20:43:58 42° S 20:47:16 14° ESE
FREGAT/IRIS 3.0 20:41:56 10° S 20:44:50 63° WSW 20:47:45 10° NNW
Cosmos 1805 Rocket 4.0 20:40:49 10° NNW 20:45:07 66° W 20:49:23 10° S
Cosmos 2228 Rocket 3.5 20:42:10 10° SSE 20:46:15 40° E 20:50:22 10° NNE
Cosmos 2056 Rocket 4.0 20:48:15 10° SSE 20:53:14 38° E 20:58:13 10° NE
Cosmos 2251 Rocket 3.8 20:48:57 10° NNW 20:54:18 73° WSW 20:59:36 10° S
Sakura Rocket 3.2 20:49:51 10° W 20:55:35 76° S 20:58:50 18° E
SL-16 R/B 2.6 20:55:34 10° S 21:00:43 37° ESE 21:05:53 10° NE
HJ-1C 4.0 20:57:50 10° S 21:01:07 56° W 21:04:25 10° NNW
Cosmos 1408 3.7 20:58:06 10° NNE 21:01:13 25° E 21:02:17 22° ESE
Cosmos 1470 Rocket 4.0 20:59:54 10° N 21:04:07 42° E 21:07:10 17° SSE
Gblst 52 Del rocket 4.4 21:03:10 10° SSW 21:08:43 45° SE 21:13:55 10° ENE
Cosmos 1624 Rocket 4.0 21:04:29 10° S 21:09:35 60° ESE 21:14:42 10° NNE
Cosmos 220 Rocket 3.8 21:05:58 10° NNW 21:10:16 80° ENE 21:13:32 17° SSE
ATLAS 2AS CENTAUR R/B 2.9 21:05:31 10° NNW 21:13:16 73° ENE 21:18:33 19° SE
ERS-2 2.0 21:10:25 15° SSE 21:13:24 84° ENE 21:17:05 10° N
YAOGAN 6 2.6 21:11:28 22° SSE 21:13:35 60° ENE 21:17:10 10° N
Cosmos 2098 Rocket 3.5 21:09:04 10° SSE 21:13:37 38° E 21:17:18 10° NNE
Resurs 01 Rocket 1.9 21:12:35 22° SE 21:15:09 49° ENE 21:19:25 10° N
Cosmos 2344 3.9 21:08:08 10° S 21:15:20 40° ESE 21:22:23 10° NE
Cosmos 1151 Rocket 3.0 21:12:10 10° S 21:16:25 84° W 21:20:42 10° N
Cosmos 1959 Rocket 4.4 21:12:29 10° S 21:18:33 61° E 21:24:34 10° NNE
SAR-Lupe-3 4.4 21:15:52 10° NNE 21:19:25 65° ESE 21:22:35 13° S
Spot 2 Rocket 3.9 21:17:25 25° SE 21:19:52 43° ENE 21:24:39 10° N
deb Centaur AC-2 4.3 21:21:59 10° W 21:26:11 53° SSW 21:27:41 35° SE
Cosmos 1455 4.5 21:23:46 10° SW 21:27:02 27° W 21:30:20 10° NNW
SJ-6B 4.3 21:24:15 10° SSW 21:27:59 36° W 21:31:40 10° NNW
Stardust Del rocket 4.5 21:27:43 10° SW 21:30:46 30° SSE 21:30:59 30° SSE
Cosmos 1933 Rocket 3.4 21:28:02 10° N 21:32:23 79° E 21:34:21 32° SSE
Meteor 2-3 Rocket 4.2 21:29:25 10° NNW 21:34:57 59° W 21:40:31 10° S
Cosmos 1869 3.3 21:31:24 13° S 21:34:57 84° W 21:38:59 10° N
Cosmos 1441 Rocket 4.5 21:37:09 26° NE 21:37:09 26° NE 21:39:09 10° NNE
BREEZE-M DEB (TANK) 4.1 21:35:44 10° NNW 21:37:32 17° NNE 21:37:32 17° NNE
Resurs 1-3 3.7 21:38:37 28° S 21:40:51 76° WSW 21:45:14 10° NNW
Cosmos 2218 Rocket 4.1 21:37:17 10° S 21:43:38 80° W 21:50:03 10° N
Cosmos 1939 Rocket 3.6 21:44:30 26° SSW 21:46:22 48° W 21:50:10 10° NNW
USA 186 3.8 21:47:55 17° W 21:47:55 17° W 21:49:15 10° NW
SL-08 R/B 4.5 21:43:40 10° S 21:49:58 90° W 21:56:25 10° N
Cosmos 2366 rocket 4.1 21:44:34 10° S 21:50:45 77° W 21:57:03 10° N
Cosmos 2237 Rocket 4.5 21:47:44 10° WSW 21:52:15 25° WNW 21:56:49 10° N
Cosmos 407 Rocket 3.4 21:59:31 10° N 22:04:28 63° ENE 22:04:28 63° ENE
NOAA 11 4.2 22:03:16 44° S 22:05:04 76° WSW 22:10:35 10° NNW
OAO 2 Rocket 4.4 22:03:10 10° W 22:07:48 33° SSW 22:07:53 33° SSW
Cosmos 2278 Rocket 2.9 22:03:12 10° NNW 22:08:37 48° WSW 22:10:53 31° SSW
Cosmos 405 Rocket 3.9 22:10:36 37° N 22:10:36 37° N 22:13:05 10° N
Cosmos 1339 Rocket 4.4 22:05:41 10° N 22:11:49 84° W 22:13:37 49° S
BREEZE-M DEB (TANK) 4.1 22:07:58 10° SW 22:12:05 71° SE 22:26:54 10° NE
ASTRO E2 3.7 22:08:59 10° W 22:11:55 46° WNW 22:11:55 46° WNW
Cosmos 1825 3.8 22:10:58 10° NNW 22:14:16 29° W 22:14:41 29° WSW
Hubble Space Telescope 3.2 22:13:38 10° SW 22:14:24 15° SW 22:14:24 15° SW
ATLAS 2A CENTAUR R/B 3.9 21:56:58 10° WSW 22:18:33 72° S 22:22:31 46° ESE
H-2A R/B 2.8 22:23:56 40° NNE 22:23:56 40° NNE 22:27:19 10° N
USA 81 4.0 22:17:59 10° N 22:22:59 80° NW 22:22:59 80° NW
OAO 3 Rocket 4.4 22:21:55 10° WSW 22:24:33 33° WSW 22:24:33 33° WSW
MetOp-B 4.5 22:29:17 57° NNE 22:29:17 57° NNE 22:33:38 10° N
CZ-4C R/B 2.3 22:29:41 55° W 22:30:28 62° WNW 22:35:58 10° NNE
ARGOS 3.3 22:33:06 67° NNW 22:33:06 67° NNW 22:37:42 10° NNW
Aurora 2 Rocket 4.3 22:27:50 10° WSW 22:34:02 42° SSW 22:34:02 42° SSW
Cosmos 1452 Rocket 4.1 22:35:18 52° W 22:35:46 54° WNW 22:40:55 10° N
SL-16 R/B 4.4 22:40:27 10° WSW 22:44:51 23° WNW 22:49:15 10° N
Terra 4.4 23:18:59 14° N 23:18:59 14° N 23:19:40 10° N
Cosmos 2369 Rocket 4.1 23:20:11 10° N 23:22:25 23° N 23:22:25 23° N
USA 267 4.4 23:29:45 10° NNE 23:33:29 35° NNE 23:33:29 35° NNE
ATLAS 5 CENTAUR R/B 4.1 23:37:31 10° NNW 23:40:22 27° N 23:40:22 27° N
